Tracking 31011 objects as of 13-Jul-2025
HD Live streaming from Space Station
objects crossing your sky now

INTELSAT 2 (PAS 2)

Track INTELSAT 2 (PAS 2) now!
INTELSAT 2 (PAS 2) is classified as:


NORAD ID: 23175
Int'l Code: 1994-040A
Perigee: 36,076.6 km
Apogee: 36,119.0 km
Inclination: 11.6 °
Period: 1,451.7 minutes
Semi major axis: 42468 km
RCS: 6.3096 m2 (large)
Launch date: July 8, 1994
Source: United States (US)
Launch site: FRENCH GUIANA (FRGUI)

12 Ku-band; Asia-Pacific.
Your satellite tracking list
Your tracking list is empty




NASA's NSSDC Master Catalog

Two Line Element Set (TLE):
1 23175U 94040A   25193.33863943 -.00000267  00000-0  00000-0 0  9990
2 23175  11.6343  37.2798 0005001  66.0886 108.9253  0.99196906112274
Source of the keplerian elements: AFSPC